^^
Station Historical Data
Daily Summary for June 27, 2017 Units:  Metric    English   Both
« Previous Day
Next Day »
Daily Weekly Monthly Yearly Custom
  High: Low: Average:
Temperature: 21.6 °C 11.4 °C 15.8 °C
Dew Point: 7.6 °C -1.4 °C 1.5 °C
Humidity: 73% 25% 40%
Wind Speed: 28.8km/h 0km/h 1.6km/h
Wind Gust: 33.8km/h - -
Wind- - WSW
Pressure: 1015.1 hPa 1010.4 hPa -
Precipitation: 0 mm    
Historical Graphs
 
 
Tabular Data for June 27, 2017
Time Temperature Dew Point Pressure Wind Wind Speed Wind Gust Humidity Rainfall Rate (Hourly) solar Conditions
00:02 17.4 °C 0.1 °C 1013.4 hPa Calm     31% 0 mm 0.0 W/m2
00:08 17.5 °C -0.3 °C 1013.4 hPa Calm     30% 0 mm 0.0 W/m2
00:13 17.8 °C 0 °C 1013.4 hPa Calm     30% 0 mm 0.0 W/m2
00:18 17.9 °C 0.1 °C 1013.4 hPa Calm     30% 0 mm 0.0 W/m2
00:23 17.9 °C 0.1 °C 1013.4 hPa Calm     30% 0 mm 0.0 W/m2
00:29 17.9 °C 0.1 °C 1013.4 hPa Calm     30% 0 mm 0.0 W/m2
00:34 17.9 °C 0.1 °C 1013.1 hPa Calm     30% 0 mm 0.0 W/m2
00:44 17.6 °C -0.2 °C 1013.1 hPa Calm     30% 0 mm 0.0 W/m2
01:00 17.9 °C 0.1 °C 1013.1 hPa Calm     30% 0 mm 0.0 W/m2
01:06 17.9 °C 0.1 °C 1012.8 hPa Calm     30% 0 mm 0.0 W/m2
01:11 17.8 °C 0 °C 1012.8 hPa Calm     30% 0 mm 0.0 W/m2
01:16 17.8 °C 0 °C 1012.8 hPa Calm     30% 0 mm 0.0 W/m2
01:21 17.7 °C -0.1 °C 1012.8 hPa Calm     30% 0 mm 0.0 W/m2
01:26 17.7 °C -0.1 °C 1012.8 hPa Calm     30% 0 mm 0.0 W/m2
01:32 17.8 °C 0 °C 1012.4 hPa Calm     30% 0 mm 0.0 W/m2
01:37 17.8 °C 0 °C 1012.4 hPa Calm     30% 0 mm 0.0 W/m2
01:47 18.1 °C 0.2 °C 1012.4 hPa Calm     30% 0 mm 0.0 W/m2
01:58 18.2 °C 0.3 °C 1012.1 hPa Calm     30% 0 mm 0.0 W/m2
02:03 18.2 °C 0.3 °C 1012.4 hPa Calm     30% 0 mm 0.0 W/m2
02:13 18.1 °C 0.2 °C 1012.4 hPa Calm     30% 0 mm 0.0 W/m2
02:18 18.2 °C -0.1 °C 1012.4 hPa Calm     29% 0 mm 0.0 W/m2
02:28 18.7 °C -0.2 °C 1012.4 hPa Calm     28% 0 mm 0.0 W/m2
02:34 18.8 °C -0.1 °C 1012.4 hPa Calm     28% 0 mm 0.0 W/m2
02:39 18.8 °C -0.1 °C 1012.4 hPa Calm     28% 0 mm 0.0 W/m2
02:44 18.9 °C 0 °C 1012.4 hPa Calm     28% 0 mm 0.0 W/m2
02:49 18.8 °C -0.1 °C 1012.4 hPa Calm     28% 0 mm 0.0 W/m2
02:55 18.8 °C -0.1 °C 1012.4 hPa Calm     28% 0 mm 0.0 W/m2
03:00 18.7 °C -0.2 °C 1012.4 hPa Calm     28% 0 mm 0.0 W/m2
03:05 18.5 °C -0.4 °C 1012.4 hPa Calm     28% 0 mm 0.0 W/m2
03:10 18.4 °C 0 °C 1012.4 hPa Calm     29% 0 mm 0.0 W/m2
03:16 18.2 °C -0.1 °C 1012.4 hPa Calm     29% 0 mm 0.0 W/m2
03:21 18.1 °C -0.2 °C 1012.4 hPa Calm     29% 0 mm 0.0 W/m2
03:26 17.9 °C 0.1 °C 1012.4 hPa Calm     30% 0 mm 0.0 W/m2
03:41 16.4 °C -0.8 °C 1012.4 hPa Calm     31% 0 mm 0.0 W/m2
03:57 15.4 °C -0.4 °C 1012.4 hPa Calm     34% 0 mm 0.0 W/m2
04:02 15.2 °C -0.6 °C 1012.1 hPa Calm     34% 0 mm 0.0 W/m2
04:13 14.8 °C -0.5 °C 1012.4 hPa Calm     35% 0 mm 0.0 W/m2
04:18 14.7 °C -0.6 °C 1012.4 hPa Calm     35% 0 mm 0.0 W/m2
04:23 14.7 °C -0.6 °C 1012.4 hPa Calm     35% 0 mm 0.0 W/m2
04:28 14.6 °C -0.7 °C 1012.1 hPa Calm     35% 0 mm 0.0 W/m2
04:33 14.2 °C -1.1 °C 1012.1 hPa Calm     35% 0 mm 0.0 W/m2
04:38 13.9 °C -0.9 °C 1012.1 hPa Calm     36% 0 mm 0.0 W/m2
04:43 13.7 °C -1.1 °C 1011.7 hPa Calm     36% 0 mm 0.0 W/m2
04:48 13.4 °C -1.4 °C 1012.1 hPa Calm     36% 0 mm 0.0 W/m2
04:54 13.3 °C -1.1 °C 1012.1 hPa Calm     37% 0 mm 0.0 W/m2
04:59 13.4 °C -0.6 °C 1012.4 hPa Calm     38% 0 mm 0.0 W/m2
05:05 13.7 °C -0.7 °C 1012.4 hPa Calm     37% 0 mm 0.0 W/m2
05:15 13.5 °C -1.3 °C 1012.1 hPa Calm     36% 0 mm 0.0 W/m2
05:20 13.2 °C -1.2 °C 1012.1 hPa Calm     37% 0 mm 0.0 W/m2
05:25 13.3 °C -0.7 °C 1012.1 hPa North 9.7 km/h 12.9 km/h 38% 0 mm 0.0 W/m2
05:30 13.7 °C -0.7 °C 1011.7 hPa Calm     37% 0 mm 0.0 W/m2
05:41 14.3 °C -0.6 °C 1011.7 hPa Calm     36% 0 mm 0.0 W/m2
05:51 14.6 °C -0.7 °C 1011.7 hPa Calm     35% 0 mm 0.0 W/m2
05:56 14.6 °C -0.7 °C 1011.7 hPa Calm     35% 0 mm 0.0 W/m2
06:01 14.5 °C -0.4 °C 1011.7 hPa Calm     36% 0 mm 0.0 W/m2
06:12 14.6 °C -0.3 °C 1011.7 hPa Calm     36% 0 mm 0.0 W/m2
06:32 14.2 °C -0.3 °C 1011.7 hPa Calm     37% 0 mm 0.0 W/m2
06:37 14.2 °C -0.3 °C 1011.7 hPa Calm     37% 0 mm 0.0 W/m2
06:43 14.2 °C -0.7 °C 1011.7 hPa Calm     36% 0 mm 0.0 W/m2
06:52 13.9 °C -0.6 °C 1011.7 hPa Calm     37% 0 mm 7.0 W/m2
06:56 14 °C -0.5 °C 1011.7 hPa Calm     37% 0 mm 0.0 W/m2
07:37 14.2 °C 0.1 °C 1012.1 hPa Calm     38% 0 mm 109.0 W/m2
07:52 14.8 °C -0.1 °C 1012.1 hPa Calm     36% 0 mm 153.0 W/m2
08:03 15.6 °C 0.6 °C 1012.1 hPa Calm     36% 0 mm 84.0 W/m2
08:23 15.9 °C 0.8 °C 1012.4 hPa Calm     36% 0 mm 90.0 W/m2
08:33 16.3 °C 0.4 °C 1012.4 hPa Calm     34% 0 mm 72.0 W/m2
08:54 17.8 °C 0.9 °C 1012.4 hPa Calm     32% 0 mm 403.0 W/m2
09:04 19.3 °C 1.3 °C 1012.8 hPa North 1.4 km/h 6.4 km/h 30% 0 mm 394.0 W/m2
09:14 20.2 °C 1.1 °C 1012.4 hPa North 3.2 km/h 11.3 km/h 28% 0 mm 404.0 W/m2
09:24 20.7 °C 1 °C 1012.8 hPa North 11.1 km/h 11.3 km/h 27% 0 mm 475.0 W/m2
09:29 20.9 °C 0.7 °C 1012.8 hPa Calm   8 km/h 26% 0 mm 144.0 W/m2
09:39 20.6 °C 0.9 °C 1012.8 hPa North 1.4 km/h 9.7 km/h 27% 0 mm 508.0 W/m2
09:44 20.9 °C 0.7 °C 1012.8 hPa North 7.9 km/h 14.5 km/h 26% 0 mm 469.0 W/m2
09:54 21.6 °C 0.7 °C 1012.4 hPa Calm   9.7 km/h 25% 0 mm 492.0 W/m2
15:27 16.4 °C 6.5 °C 1010.4 hPa SW 28.8 km/h 33.8 km/h 52% 0 mm 225.0 W/m2
19:19 13.5 °C 6.4 °C 1013.4 hPa SSW 6.4 km/h 9.7 km/h 62% 0 mm 0.0 W/m2
19:24 13.5 °C 6.6 °C 1013.4 hPa SSW 4.7 km/h 8 km/h 63% 0 mm 0.0 W/m2
20:20 12.7 °C 6.5 °C 1014.1 hPa SSW 3.2 km/h 6.4 km/h 66% 0 mm 0.0 W/m2
20:25 12.7 °C 6.7 °C 1014.1 hPa SSW 4.7 km/h 8 km/h 67% 0 mm 0.0 W/m2
20:30 12.7 °C 6.7 °C 1014.1 hPa SSW 7.9 km/h 8 km/h 67% 0 mm 0.0 W/m2
20:35 12.8 °C 6.8 °C 1014.4 hPa SSW 6.4 km/h 9.7 km/h 67% 0 mm 0.0 W/m2
20:41 12.8 °C 6.8 °C 1014.4 hPa SSW 7.9 km/h 9.7 km/h 67% 0 mm 0.0 W/m2
20:45 12.9 °C 6.9 °C 1014.4 hPa SSW 4.7 km/h 8 km/h 67% 0 mm 0.0 W/m2
20:55 12.9 °C 6.9 °C 1014.4 hPa SSW 9.7 km/h 9.7 km/h 67% 0 mm 0.0 W/m2
21:15 12.9 °C 7.3 °C 1014.4 hPa SSW 11.1 km/h 12.9 km/h 69% 0 mm 0.0 W/m2
21:21 13 °C 7.4 °C 1014.8 hPa SSW 6.4 km/h 9.7 km/h 69% 0 mm 0.0 W/m2
21:26 13 °C 7.2 °C 1014.8 hPa SSW 6.4 km/h 6.4 km/h 68% 0 mm 0.0 W/m2
21:31 12.9 °C 7.1 °C 1014.8 hPa SSW 4.7 km/h 8 km/h 68% 0 mm 0.0 W/m2
22:31 12.5 °C 7.4 °C 1015.1 hPa SSW 1.4 km/h 3.2 km/h 71% 0 mm 0.0 W/m2
22:46 12.6 °C 7.5 °C 1014.8 hPa Calm     71% 0 mm 0.0 W/m2
22:56 12.7 °C 7.6 °C 1014.8 hPa Calm     71% 0 mm 0.0 W/m2
23:12 12.7 °C 7.4 °C 1014.8 hPa Calm     70% 0 mm 0.0 W/m2
23:22 12.5 °C 7.2 °C 1014.8 hPa Calm     70% 0 mm 0.0 W/m2
23:37 12.1 °C 6.8 °C 1014.8 hPa Calm     70% 0 mm 0.0 W/m2
23:42 11.6 °C 6.9 °C 1015.1 hPa Calm   1.6 km/h 73% 0 mm 0.0 W/m2
23:48 11.4 °C 6.7 °C 1014.8 hPa Calm     73% 0 mm 0.0 W/m2
Canyon Roadhouse, Fishriver Canyon, Namibia
Compliments of Weather Underground - 2 mb